Regional Weather Roundup
Issued by NWS

Home | Current Version | Previous Version | Text Only | Print | Product List | Glossary Off
Versions: 1 2 3 4 5 6 7 8 9 10 11 12 13 14 15 16 17 18 19 20 21 22 23 24 25 26 27 28 29 30 31 32 33 34 35 36 37 38 39 40 41 42 43 44 45 46 47 48 49 50

000
ASUS43 KIND 290009
RWRIN

WEATHER ROUNDUP FOR INDIANA
NATIONAL WEATHER SERVICE INDIANAPOLIS IN
800 PM EDT SAT MAY 28 2016

NOTE: "FAIR" INDICATES FEW OR NO CLOUDS BELOW 12,000 FEET WITH NO
SIGNIFICANT WEATHER AND/OR OBSTRUCTIONS TO VISIBILITY.

* - STATION DOES NOT REPORT WEATHER SUCH AS PRECIPITATION OR FOG.

+ - STATION NOT QUALITY CONTROLLED BY THE NATIONAL WEATHER SERVICE.
    USE DATA WITH CAUTION...ESPECIALLY DEWPOINT AND RELATIVE
    HUMIDITY OBSERVATIONS.

INZ001>003-010>013-019-020-290100-
NORTHWEST INDIANA

CITY           SKY/WX    TMP DP  RH WIND       PRES   REMARKS
GARY /AIRPORT/ MOSUNNY   82  70  65 S14       29.92R
KNOX *+          N/A     81  50  34 S23         N/A
LA PORTE +     SUNNY     83  59  44 S12G17    29.95S
6HR MIN TEMP:  76; 6HR MAX TEMP:  85;

MICHIGAN CITY+ SUNNY     81  61  50 S8G16     29.94S
MONTICELLO +   SUNNY     80  57  45 S13G21    29.97S
6HR MIN TEMP:  79; 6HR MAX TEMP:  85;

RENSSELAER +   SUNNY     81  59  47 S17G23    29.96R
VALPARAISO     SUNNY     81  60  48 S15G25    29.94S
6HR MIN TEMP:  77; 6HR MAX TEMP:  83;


$$

LMZ046-743>745-290100-
SOUTHERN LAKE MICHIGAN

STATION/POSITION TIME  TEMP    WIND        PRES    WAVE
                       AIR SEA DIR/SP/G            HT
                 (UTC) (F)     (DEG/KT/KT) (MB)    (FT)
BURNS HARBOR     2300   80     190/ 17/ 24 1013.2S
MICHIGAN CITY    2300   81     180/ 18/ 21   N/A
5NW MICH CITY    0000   71 57  200/ 10/ 12   N/A     2

$$

INZ004-005-014>016-021>024-290100-
NORTH CENTRAL INDIANA

CITY           SKY/WX    TMP DP  RH WIND       PRES   REMARKS
GOSHEN         CLOUDY    76  64  66 S13       29.99R
6HR MIN TEMP:  73; 6HR MAX TEMP:  87; 6HR PCP:  0.16;

LOGANSPORT +   MOSUNNY   79  63  57 S18G24    30.00S
PERU/GRISSOM   CLOUDY    78  66  65 S17       30.00S
6HR MIN TEMP:  73; 6HR MAX TEMP:  87; 6HR PCP:  0.01;

ROCHESTER +    CLOUDY    81  64  57 S12G20    30.00R
SOUTH BEND     MOSUNNY   82  59  45 S18       29.96R
6HR MIN TEMP:  78; 6HR MAX TEMP:  84; 6HR PCP: TRACE;

WARSAW +       CLOUDY    73  63  68 S6        30.01R

$$

INZ006>009-017-018-025>027-290100-
NORTHEAST INDIANA

CITY           SKY/WX    TMP DP  RH WIND       PRES   REMARKS
ANGOLA *+        N/A     82  66  57 S10       29.99R
AUBURN +       LGT RAIN  77  63  61 S7G16     30.04R
FORT WAYNE     CLOUDY    74  63  68 S15G28    30.03R
6HR MIN TEMP:  74; 6HR MAX TEMP:  88; 6HR PCP: TRACE;

HUNTINGTON +   CLOUDY    76  63  65 S8        30.02R
6HR MIN TEMP:  76; 6HR MAX TEMP:  86;


$$

INZ028-029-035-036-043>045-051>053-290100-
WEST CENTRAL INDIANA

CITY           SKY/WX    TMP DP  RH WIND       PRES   REMARKS
CRAWFORDSVL +  MOSUNNY   76  64  67 S15       30.01R
6HR MIN TEMP:  75; 6HR MAX TEMP:  84;

GREENCASTLE +  CLOUDY    73  70  88 S9G18     30.03S
LAFAYETTE      MOSUNNY   78  64  61 S12G22    29.97R
6HR MIN TEMP:  78; 6HR MAX TEMP:  83;

TERRE HAUTE    SUNNY     77  66  68 S13G18    30.00R
6HR MIN TEMP:  77; 6HR MAX TEMP:  84; 6HR PCP: TRACE;


$$

INZ030>032-037>040-046>048-054>057-064-065-290100-
CENTRAL INDIANA

CITY           SKY/WX    TMP DP  RH WIND       PRES   REMARKS
CP ATTERBURY + CLOUDY    77  66  69 S8        30.05S
COLUMBUS       MOSUNNY   73  72  94 SE7       30.05S
FRANKFORT +      N/A     79  54  41 S12G20    30.03R
6HR MIN TEMP:  74; 6HR MAX TEMP:  88;

GREENWOOD *+   CLOUDY    77  64  65 SW14      30.05S
INDIANAPOLIS   PTSUNNY   76  66  71 S14       30.03R
6HR MIN TEMP:  75; 6HR MAX TEMP:  83; 6HR PCP: TRACE;

-EAGLE CREEK   PTSUNNY   77  64  64 S8G20     30.03S
6HR MIN TEMP:  77; 6HR MAX TEMP:  84; 6HR PCP: TRACE;

KOKOMO *+      CLOUDY    79  64  61 S15       30.01S
6HR MIN TEMP:  75; 6HR MAX TEMP:  84;

MARION +       CLOUDY    75  66  75 S13       30.04R HAZE
SHELBYVILLE    CLOUDY    76  69  79 SE13      30.04F
6HR MIN TEMP:  75; 6HR MAX TEMP:  87; 6HR PCP: TRACE;

ZIONSVILLE +   CLOUDY    76  64  68 S12G21    30.04S
6HR MIN TEMP:  68; 6HR MAX TEMP:  84; 6HR PCP:  0.04;


$$

INZ033-034-041-042-049-050-058-059-290100-
EAST CENTRAL INDIANA

CITY           SKY/WX    TMP DP  RH WIND       PRES   REMARKS
MUNCIE         LGT RAIN  75  66  73 S17G23    30.06R
6HR MIN TEMP:  74; 6HR MAX TEMP:  86; 6HR PCP: TRACE;


$$

INZ060-061-067>069-081>083-085>088-290100-
SOUTHWEST INDIANA

CITY           SKY/WX    TMP DP  RH WIND       PRES   REMARKS
EVANSVILLE     SUNNY     79  65  62 S9        30.03R
6HR MIN TEMP:  79; 6HR MAX TEMP:  83; 6HR PCP: TRACE;

HUNTINGBURG *+ MOSUNNY   79  64  61 S8        30.04R
6HR MIN TEMP:  79; 6HR MAX TEMP:  81;

WASHINGTON +   SUNNY     77  68  74 S9G16     30.02S
6HR MIN TEMP:  72; 6HR MAX TEMP:  82; 6HR PCP:  0.19;


$$

INZ062-063-066-070>080-084-089>092-290100-
SOUTH CENTRAL AND SOUTHEAST INDIANA

CITY           SKY/WX    TMP DP  RH WIND       PRES   REMARKS
BLOOMINGTON    MOSUNNY   76  68  76 S7        30.03F
6HR MIN TEMP:  73; 6HR MAX TEMP:  83; 6HR PCP:  0.04;

MADISON *+     CLOUDY    75  64  69 S5        30.10R
SEYMOUR +      CLOUDY    77  66  69 S9        30.06R

$$





USA.gov is the U.S. government's official web portal to all federal, state and local government web resources and services.